Regional Weather Roundup
Issued by NWS Little Rock, AR

Home | Current Version | Previous Version | Graphics & Text | Print | Product List | Glossary On
Versions: 1 2 3 4 5 6 7 8 9 10 11 12 13 14 15 16 17 18 19 20 21 22 23 24 25 26 27 28 29 30 31 32 33 34 35 36 37 38 39 40 41 42 43 44 45 46 47 48 49 50
000
ASUS44 KLZK 250710
RWRLZK
ARKANSAS STATE WEATHER ROUNDUP
NATIONAL WEATHER SERVICE LITTLE ROCK AR
ISSUED BY NATIONAL WEATHER SERVICE MEMPHIS TN
200 AM CDT WED APR 25 2018

NOTE: "FAIR" INDICATES FEW OR NO CLOUDS BELOW 12,000 FEET WITH NO
SIGNIFICANT WEATHER AND/OR OBSTRUCTIONS TO VISIBILITY.

ARZ001-003-010-029-250800-
NORTHWEST ARKANSAS

CITY           SKY/WX    TMP DP  RH WIND       PRES   REMARKS
FORT SMITH     CLEAR     55  47  74 CALM      30.05F
HARRISON       CLEAR     57  40  52 W6        30.07S
BENTONVILLE    CLEAR     53  42  66 CALM      30.10S
ROGERS         CLEAR     56  39  53 CALM      30.08F
SILOAM SPGS    CLEAR     53  40  61 CALM      30.09S
HIGHFILL       CLEAR     50  40  68 CALM      30.08S
$$

ARZ004-005-016-250800-
NORTH CENTRAL ARKANSAS

CITY           SKY/WX    TMP DP  RH WIND       PRES   REMARKS
BATESVILLE     CLEAR     53  51  93 CALM      30.04F
FLIPPIN        CLEAR     52  48  86 CALM      30.05F
MTN HOME       CLEAR     54  48  80 CALM      30.04F
$$

ARZ040-041-250800-
WEST CENTRAL ARKANSAS

CITY           SKY/WX    TMP DP  RH WIND       PRES   REMARKS
MOUNT IDA      PTCLDY    52  49  89 CALM      30.05S
$$

ARZ017-025-026-028-250800-
NORTHEAST ARKANSAS

CITY           SKY/WX    TMP DP  RH WIND       PRES   REMARKS
JONESBORO      FAIR      52  52 100 W5        30.02S
WALNUT RIDGE   FAIR      55  52  89 W5        30.02F
BLYTHEVILLE    FAIR      53  50  89 CALM      30.00F FOG
$$

ARZ022-033-042-044-250800-
CENTRAL ARKANSAS

CITY           SKY/WX    TMP DP  RH WIND       PRES   REMARKS
LITTLE ROCK    PTCLDY    56  56 100 SW5       30.07R
JACKSONVILLE   CLEAR     54  53  99 CALM      30.05R
SEARCY         FAIR      52  52 100 CALM      30.05F FOG
HOT SPRINGS    PTCLDY    59  55  87 E5        30.07S
RUSSELLVILLE   CLEAR     53  50  89 CALM      30.06R
$$

ARZ036-250800-
EAST ARKANSAS

CITY           SKY/WX    TMP DP  RH WIND       PRES   REMARKS
WEST MEMPHIS   FOG       54  54 100 W3        30.01F VSB 3/4
$$

ARZ050-070-073-250800-
SOUTHWEST ARKANSAS

CITY           SKY/WX    TMP DP  RH WIND       PRES   REMARKS
TEXARKANA      CLOUDY    57  54  89 SW3       30.06R
EL DORADO      FAIR      55  55 100 NE9       30.05R
DEQUEEN        CLOUDY    54  52  93 CALM      30.04S
$$

ARZ056-057-069-250800-
SOUTHEAST ARKANSAS

CITY           SKY/WX    TMP DP  RH WIND       PRES   REMARKS
PINE BLUFF     FAIR      58  55  90 CALM      30.06R
STUTTGART      FAIR      57  56  96 SW8       30.06R
MONTICELLO     FAIR      56  54  93 CALM      30.06R
$$





USA.gov is the U.S. government's official web portal to all federal, state and local government web resources and services.